WZZ6453 EPKT-LGAV

Flight info

Callsign WZZ6453
Flight time N/A
Altitude 37000
Route BABKO DCT NIDOK DCT PARAK/N0438F390 DCT IBISI DCT MAKED DCT SIGFO UM749 ROPOX
Aircraft A20N/M-SDE1E2E3FGIJ1J4RWXY/LB1

Departure

Time 2026-04-30 14:15
Airport Katowice Wojciech Korfanty International Airport (EPKT)

Arrival

Time N/A
Airport Athens Eleftherios Venizelos International Airport (LGAV)
Time Latitude Longitude Altitude Speed Heading
2026-04-30 13:51 50.47152 19.08254 996 ft 0 kts 173°
2026-04-30 14:05 50.47154 19.08254 996 ft 1 kts 173°
2026-04-30 14:05 50.47161 19.08252 996 ft 1 kts 173°
2026-04-30 14:05 50.47169 19.08251 995 ft 1 kts 173°
2026-04-30 14:06 50.47177 19.08249 995 ft 1 kts 173°
2026-04-30 14:06 50.47189 19.08246 993 ft 1 kts 173°
2026-04-30 14:07 50.47204 19.08243 998 ft 1 kts 177°
2026-04-30 14:07 50.47212 19.08243 996 ft 1 kts 192°
2026-04-30 14:07 50.47219 19.08246 993 ft 1 kts 206°
2026-04-30 14:08 50.47232 19.08260 993 ft 1 kts 236°
2026-04-30 14:08 50.47236 19.08270 996 ft 1 kts 250°
2026-04-30 14:08 50.47238 19.08281 995 ft 0 kts 263°
2026-04-30 14:09 50.47237 19.08273 993 ft 3 kts 261°
2026-04-30 14:10 50.47226 19.08268 996 ft 1 kts 168°
2026-04-30 14:10 50.47224 19.08273 995 ft 1 kts 139°
2026-04-30 14:10 50.47229 19.08324 993 ft 10 kts 80°
2026-04-30 14:10 50.47236 19.08487 995 ft 19 kts 89°
2026-04-30 14:11 50.47316 19.08591 996 ft 18 kts
2026-04-30 14:11 50.47426 19.08550 995 ft 15 kts 291°
2026-04-30 14:11 50.47427 19.08408 994 ft 14 kts 272°
2026-04-30 14:11 50.47427 19.08242 992 ft 17 kts 270°
2026-04-30 14:12 50.47428 19.08045 991 ft 19 kts 271°
2026-04-30 14:12 50.47429 19.07822 989 ft 21 kts 270°
2026-04-30 14:12 50.47430 19.07578 987 ft 23 kts 270°
2026-04-30 14:12 50.47430 19.07312 985 ft 25 kts 270°
2026-04-30 14:13 50.47431 19.07059 983 ft 21 kts 270°
2026-04-30 14:13 50.47431 19.06814 981 ft 24 kts 269°
2026-04-30 14:13 50.47433 19.06550 984 ft 25 kts 272°
2026-04-30 14:13 50.47432 19.06290 985 ft 21 kts 269°
2026-04-30 14:14 50.47433 19.06058 985 ft 21 kts 276°
2026-04-30 14:14 50.47533 19.05977 977 ft 18 kts
2026-04-30 14:14 50.47606 19.06044 973 ft 10 kts 77°
2026-04-30 14:14 50.47608 19.06090 974 ft 3 kts 88°
2026-04-30 14:15 50.47608 19.06384 975 ft 63 kts 91°
2026-04-30 14:15 50.47608 19.07445 988 ft 128 kts 90°
2026-04-30 14:15 50.47594 19.09094 1119 ft 164 kts 92°
2026-04-30 14:15 50.47557 19.10873 1815 ft 160 kts 88°
2026-04-30 14:16 50.47544 19.12597 2624 ft 156 kts 86°
2026-04-30 14:16 50.47548 19.14323 3226 ft 163 kts 85°
2026-04-30 14:16 50.47561 19.16176 3742 ft 176 kts 84°
2026-04-30 14:16 50.47549 19.18210 4202 ft 201 kts 95°
2026-04-30 14:17 50.47002 19.20330 4873 ft 224 kts 126°
2026-04-30 14:17 50.45734 19.21900 5555 ft 247 kts 157°
2026-04-30 14:17 50.44000 19.22329 6356 ft 261 kts 180°
2026-04-30 14:17 50.42110 19.22264 7008 ft 282 kts 181°
2026-04-30 14:18 50.40112 19.22171 7880 ft 290 kts 180°
2026-04-30 14:18 50.38075 19.22103 8840 ft 296 kts 179°
2026-04-30 14:18 50.33884 19.22058 10754 ft 309 kts 177°
2026-04-30 14:19 50.29421 19.23256 11541 ft 345 kts 146°
2026-04-30 14:19 50.27609 19.25670 12296 ft 342 kts 123°
2026-04-30 14:19 50.26240 19.28714 13158 ft 344 kts 118°
2026-04-30 14:20 50.24912 19.31857 14023 ft 349 kts 118°
2026-04-30 14:20 50.23569 19.35046 14822 ft 353 kts 118°
2026-04-30 14:20 50.20749 19.41424 16391 ft 363 kts 123°
2026-04-30 14:21 50.18992 19.44328 17178 ft 372 kts 131°
2026-04-30 14:21 50.17091 19.47098 17931 ft 376 kts 131°
2026-04-30 14:21 50.13232 19.52743 19313 ft 384 kts 130°
2026-04-30 14:22 50.11279 19.55606 19985 ft 387 kts 130°
2026-04-30 14:22 50.07261 19.61330 21265 ft 399 kts 137°
2026-04-30 14:22 50.04890 19.63567 21891 ft 411 kts 150°
2026-04-30 14:23 49.99272 19.65985 23130 ft 426 kts 163°
2026-04-30 14:23 49.93427 19.67930 24286 ft 433 kts 163°